Lapse_Rate
2.5 2.6 2.9 3.3 3.7 4.0 4.1 4.5 4.8 4.8 4.7 4.8 4.8 4.8 4.8 4.9 4.7 4.6 4.5 4.2 4.9 5.1
3.0 3.3 3.8 4.2 4.3 4.4 4.5 4.7 4.9 5.0 5.5 5.9 6.1 6.0 5.9 5.9 5.6 5.0 4.9 4.4 4.6 5.3
4.0 4.2 4.5 4.7 4.8 4.8 4.9 4.9 5.2 5.8 6.3 6.6 6.7 6.7 6.8 6.9 6.7 6.1 5.5 5.3 4.5 4.5
4.6 4.8 4.9 5.1 5.2 5.2 5.4 5.4 5.8 6.3 6.5 6.7 6.8 6.9 7.1 7.2 7.4 7.0 6.3 5.7 5.3 4.6
5.4 5.5 5.6 5.6 5.7 5.9 6.0 5.9 6.1 6.4 6.5 6.6 6.6 6.9 7.1 7.3 7.6 7.5 6.8 6.3 5.7 4.7
6.0 6.2 6.3 6.3 6.4 6.5 6.7 6.6 6.4 6.4 6.4 6.5 6.5 6.6 6.7 7.1 7.4 7.6 7.3 6.7 6.1 5.4
6.4 6.6 6.7 6.9 7.0 7.0 7.1 7.0 6.8 6.6 6.5 6.4 6.5 6.4 6.5 6.8 7.0 7.2 7.4 7.0 6.0 5.3
6.5 6.8 6.9 7.0 7.1 7.2 7.3 7.1 7.0 6.8 6.7 6.5 6.5 6.4 6.3 6.4 6.6 6.9 7.2 6.9 5.9 5.1
6.7 6.8 7.0 7.1 7.1 7.2 7.2 7.3 7.2 7.0 6.8 6.7 6.6 6.4 6.3 6.1 6.2 6.4 6.6 6.8 6.2 5.1
6.8 7.0 7.0 7.1 7.2 7.2 7.3 7.3 7.3 7.1 6.9 6.8 6.6 6.5 6.5 6.4 6.2 6.3 6.3 6.4 6.3 5.3
6.9 7.0 7.0 7.1 7.1 7.1 7.2 7.2 7.3 7.2 7.0 6.9 6.8 6.5 6.5 6.5 6.2 6.2 6.2 6.3 6.2 5.3
6.9 7.0 7.1 7.1 7.0 6.9 7.0 7.1 7.1 7.0 7.0 7.0 6.9 6.6 6.6 6.5 6.2 6.2 6.2 6.3 6.3 5.4
6.9 7.0 7.0 7.0 6.9 6.8 6.8 6.9 7.0 7.0 6.9 6.9 6.8 6.6 6.5 6.4 6.2 6.1 6.1 6.3 6.2 5.3
6.9 6.8 6.9 6.8 6.7 6.6 6.6 6.8 6.8 7.0 6.9 7.0 6.7 6.6 6.4 6.4 6.2 5.9 5.9 6.1 6.3 5.9
Wind_Speed
8 2 3 3 5 6 7 9 18 19 20 21 21 21 20 16 12 13 12 18 14 11
7 4 4 8 10 8 13 15 18 19 19 21 21 21 20 10 13 13 13 14 15 12
6 9 11 10 6 9 14 15 17 17 18 19 20 20 18 12 14 14 12 11 15 15
5 8 10 7 10 11 15 16 15 16 17 16 15 19 13 14 16 15 15 15 14 17
5 8 5 6 11 13 13 17 16 17 15 14 14 17 14 15 15 16 17 17 16 17
6 5 6 6 10 13 14 15 17 15 11 13 14 15 15 15 16 17 18 17 18 19
6 6 6 8 9 10 14 12 12 14 13 13 14 14 16 16 17 17 15 18 16 19
6 5 5 6 6 11 11 12 14 11 13 15 11 10 15 17 17 15 17 17 17 17
6 5 6 6 6 6 9 8 9 10 11 14 10 24 27 24 16 16 17 18 17 17
6 7 7 6 5 8 8 8 10 10 10 13 14 27 28 30 16 15 16 18 17 16
6 7 6 6 7 6 5 9 10 11 12 12 13 26 29 30 17 16 17 18 18 18
6 7 6 7 8 8 6 9 10 10 12 12 15 27 29 25 16 15 17 16 18 19
6 6 8 9 10 6 5 10 8 12 11 17 15 25 28 24 12 14 14 17 17 28
6 7 8 9 8 8 9 9 9 11 11 12 13 15 28 29 15 12 14 13 14 14
Wind_Direction
308 238 271 263 303 310 308 311 316 318 316 312 312 310 308 303 297 294 294 291 282 281
291 290 291 295 292 299 304 312 316 312 311 310 309 307 305 298 294 292 294 288 286 281
306 307 306 305 303 299 308 312 312 312 311 309 308 306 302 298 298 294 292 288 285 287
297 302 307 306 302 298 306 312 310 309 308 307 307 305 302 297 294 292 292 286 279 283
298 302 298 298 301 314 310 311 307 306 304 303 303 304 301 298 294 290 289 288 285 284
288 290 290 287 299 312 311 311 308 306 302 302 301 303 301 295 288 287 284 282 288 285
281 284 286 288 294 301 305 301 303 306 300 297 298 299 298 295 291 290 301 299 299 297
274 274 279 284 287 294 296 297 295 298 301 302 298 298 304 304 297 305 307 309 302 302
281 283 280 281 286 291 295 296 296 295 295 302 302 304 310 309 308 310 312 311 309 305
279 283 279 277 290 291 291 296 296 296 298 297 300 310 313 310 311 313 307 305 308 307
274 276 280 282 282 278 272 292 293 299 297 297 301 312 314 313 314 304 304 302 302 299
272 280 282 288 285 279 281 292 293 294 296 298 299 310 315 316 311 302 304 300 299 304
273 271 279 281 284 275 253 285 287 293 291 293 300 303 313 317 310 305 305 300 306 303
267 269 270 279 273 276 278 284 286 290 293 291 287 299 312 318 310 309 301 309 306 303